Location: Unspecified
(0.0000°N, 0.0000°E)
Time: 14:46:53
(UTC+00:00)

CZ-4 DEB - Pass Details

Date: 22 June 2024
Orbit: 785 x 976 km, 99.1° (Epoch: 18 July)

Event Time Altitude Azimuth Distance (km) Brightness Sun altitude
Exits shadow 21:00:27 24° 259° (W) 1,857 ? -40.1°
Drops below altitude 10° 21:05:07 10° 309° (NW) 2,712 ? -41.1°
Sets 21:08:04 0° 322° (NW) 3,662 ? -41.7°
